Regional Weather Roundup
Issued by NWS Green Bay, WI

Home | Current Version | Previous Version | Text Only | Print | Product List | Glossary On
Versions: 1 2 3 4 5 6 7 8 9 10 11 12 13 14 15 16 17 18 19 20 21 22 23 24 25 26 27 28 29 30 31 32 33 34 35 36 37 38 39 40 41 42 43 44 45 46 47 48 49 50
000
ASUS43 KGRB 290359
RWRGRB

NORTH-CENTRAL AND NORTHEAST WISCONSIN REGIONAL WEATHER ROUNDUP
NATIONAL WEATHER SERVICE GREEN BAY WI
1000 PM CST WED JAN 28 2015

WIZ005-009-010>012-018-019-290500-
NORTH CENTRAL WISCONSIN

CITY           SKY/WX    TMP DP  RH WIND       PRES   REMARKS
IRONWOOD       CLOUDY    28  21  74 SW3       29.79F
MANITOWISH WTR NOT AVBL
ARBOR VITAE    NOT AVBL
EAGLE RIVER    NOT AVBL
LAND O LAKES   NOT AVBL
RHINELANDER    CLOUDY    26  20  77 S7        29.81F
PHILLIPS       NOT AVBL
ANTIGO         NOT AVBL
TOMAHAWK       NOT AVBL
MERRILL        NOT AVBL
$$

WIZ013-073-290500-
NORTHEAST WISCONSIN

CITY           SKY/WX    TMP DP  RH WIND       PRES   REMARKS
IRON MOUNTAIN  CLOUDY    28  23  81 SE9       29.84F
MARINETTE      CLOUDY    30  21  69 S8        29.88F
$$

WIZ017-030-035>037-045-290500-
CENTRAL WISCONSIN

CITY           SKY/WX    TMP DP  RH WIND       PRES   REMARKS
MEDFORD        NOT AVBL
WAUSAU         CLOUDY    27  21  78 SE8       29.81F
MOSINEE        CLOUDY    27  23  86 SE3       29.84F
MARSHFIELD     CLOUDY    28  21  75 E5        29.81F
WISC RAPIDS    CLOUDY    28  20  71 E5        29.84F
STEVENS POINT  NOT AVBL
WAUPACA        NOT AVBL
SHAWANO        NOT AVBL
CLINTONVILLE   NOT AVBL
$$

WIZ038-039-048-051-290500-
FOX VALLEY

CITY           SKY/WX    TMP DP  RH WIND       PRES   REMARKS
NWS GREEN BAY  CLOUDY    31  25  78 SE10      29.88F
APPLETON       CLOUDY    30  23  74 SE8       29.86F
OSHKOSH        CLOUDY    31  22  69 SE7       29.85F
FOND DU LAC    CLOUDY    30  22  72 S12       29.84F
$$

WIZ022-050-052-290500-
EAST CENTRAL WISCONSIN

CITY           SKY/WX    TMP DP  RH WIND       PRES   REMARKS
STURGEON BAY   CLOUDY    30  21  69 S16G22    29.90F
MANITOWOC      NOT AVBL
SHEBOYGAN      CLOUDY    32  24  72 S16       29.87F
$$

LMZ563-521-522-541>543-290500-
LAKESHORE

STATION/POSITION TIME  TEMP    WIND        PRES    VSBY  WAVE
                       AIR SEA DIR/SP/G                  HT/PER
                 (UTC) (F)     (DEG/KT/KT) (MB)    (MI)  (FT/S)
SHEBOYGAN LKSHOR 0300   34     170/ 26/ 29 1013.5F
KEWAUNEE LKSHORE 0300   33     180/ 21/ 25 1012.3F
NORTHPORT PIER   0300   31     150/ 10/ 22 1013.9F
SISTER BAY LKSHO 0300   31     170/ 13/ 16   N/A
CHAMBERS ISLAND  0300   31     150/  5/ 10 1013.9F
MENOMINEE LKSHOR 0300   30     160/ 11     1013.3F
$$



USA.gov is the U.S. government's official web portal to all federal, state and local government web resources and services.